Regional Weather Roundup
Issued by NWS

Home | Current Version | Previous Version | Graphics & Text | Print | Product List | Glossary On
Versions: 1 2 3 4 5 6 7 8 9 10 11 12 13 14 15 16 17 18 19 20 21 22 23 24 25 26 27 28 29 30 31 32 33 34 35 36 37 38 39 40 41 42 43 44 45 46 47 48 49 50
000
ASUS43 KFSD 281302
RWRSD

WEATHER ROUNDUP FOR SOUTH DAKOTA
NATIONAL WEATHER SERVICE SIOUX FALLS SD
800 AM CDT MON JUL 28 2014

NOTE: "FAIR" INDICATES FEW OR NO CLOUDS BELOW 12,000 FEET WITH NO
SIGNIFICANT WEATHER AND/OR OBSTRUCTIONS TO VISIBILITY.


SDZ001>005-009-010-012>017-281400-
NORTHWEST AND NORTH CENTRAL SOUTH DAKOTA

CITY           SKY/WX    TMP DP  RH WIND       PRES   REMARKS
BUFFALO          N/A     56  51  84 E5        30.29R
FAITH            N/A     58  52  80 CALM      30.35R
MOBRIDGE       FOG       54  54 100 NW6       30.32S VSB 1/4
$$

SDZ012>016-024>037-041>051-057-063-072>074-281400-
SOUTHWEST AND SOUTH CENTRAL SOUTH DAKOTA

CITY           SKY/WX    TMP DP  RH WIND       PRES   REMARKS
RAPID CTY ARPT PTSUNNY   58  54  86 S6        30.35S
PIERRE         SUNNY     56  55  97 CALM      30.32S
CUSTER         MOSUNNY   51  48  89 CALM      30.43S
ELLSWORTH AFB  MOSUNNY   59  54  83 S6        30.34S
PHILIP         SUNNY     54  50  86 CALM      30.34S
PINE RIDGE     MOSUNNY   56  52  86 W3        30.35S
WINNER         FAIR      57  53  86 CALM      30.34R
$$

SDZ004>011-016>023-039-040-281400-
NORTHEAST SOUTH DAKOTA

CITY           SKY/WX    TMP DP  RH WIND       PRES   REMARKS
ABERDEEN       CLOUDY    56  54  93 N9        30.31R
WATERTOWN      CLOUDY    60  56  86 N7        30.29R
SISSETON         N/A     61  58  90 N10       30.27R
$$

SDZ017-020-022-023-036>040-048>070-281400-
SOUTHEAST SOUTH DAKOTA

CITY           SKY/WX    TMP DP  RH WIND       PRES   REMARKS
SIOUX FALLS    PTSUNNY   62  58  86 NW9       30.27R
HURON          SUNNY     54  51  90 NW9       30.31R
CHAMBERLAIN    SUNNY     57  55  94 NW3       30.33R
MITCHELL       SUNNY     57  55  93 NW7       30.32R
YANKTON        SUNNY     57  55  94 NW8       30.29S
$$

ABBREVIATIONS USED IN REMARKS
   TC - TEMPERATURE IN CELSIUS
  WCI - WIND CHILL INDEX
   HX - HEAT INDEX
  VSB - VISIBILITY




USA.gov is the U.S. government's official web portal to all federal, state and local government web resources and services.